| time (UTC) | temp F | wind direction | speed knots | gust knots | rain 1hr in | rain 24hr in | rain mn in | humidity % | barometer mb |
| 20260505070913 | 56 | 294 | 0.9 | 6.1 | 0.00 | 0.07 | 0.05 | 66 | 1006.9 |
| 20260505070111 | 56 | 341 | 0.9 | 6.1 | 0.00 | 0.05 | 0.03 | 66 | 1005.9 |
| 20260505065311 | 56 | 315 | 0.9 | 3.5 | 0.00 | 0.05 | 0.03 | 64 | 1005.5 |
| 20260505064512 | 57 | 32 | 1.7 | 8.7 | 0.00 | 0.05 | 0.03 | 62 | 1004.8 |
| 20260505063712 | 58 | 10 | 1.7 | 5.2 | 0.00 | 0.05 | 0.03 | 61 | 1004.4 |
| 20260505062911 | 58 | 15 | 1.7 | 10.4 | 0.00 | 0.05 | 0.03 | 57 | 1004.3 |
| 20260505062112 | 59 | 7 | 2.6 | 11.3 | 0.01 | 0.05 | 0.03 | 60 | 1004.0 |
| 20260505061312 | 59 | 321 | 0.9 | 7.8 | 0.01 | 0.05 | 0.03 | 66 | 1004.4 |
| 20260505060511 | 59 | 39 | 1.7 | 6.1 | 0.02 | 0.05 | 0.03 | 70 | 1003.8 |
| 20260505055712 | 59 | 23 | 0.9 | 5.2 | 0.03 | 0.05 | 0.03 | 72 | 1002.9 |
| 20260505054911 | 60 | 14 | 0.9 | 8.7 | 0.05 | 0.05 | 0.03 | 73 | 1002.9 |
| 20260505054111 | 60 | 27 | 2.6 | 12.2 | 0.05 | 0.05 | 0.02 | 71 | 1003.0 |
| 20260505053312 | 58 | 55 | 0.9 | 6.1 | 0.05 | 0.05 | 0.02 | 78 | 1002.5 |
| 20260505052512 | 59 | 0 | 0.0 | 0.0 | 0.03 | 0.03 | 0.02 | 78 | 1002.9 |
| 20260505051711 | 60 | 48 | 0.9 | 2.6 | 0.03 | 0.03 | 0.02 | 75 | 1002.6 |
| 20260505050912 | 61 | 47 | 1.7 | 4.3 | 0.02 | 0.02 | 0.01 | 71 | 1002.3 |
| 20260505050113 | 65 | 34 | 2.6 | 12.2 | 0.01 | 0.01 | 0.00 | 63 | 1002.4 |
| 20260505041311 | 71 | 292 | 0.9 | 3.5 | 0.00 | 0.00 | 0.00 | 67 | 1001.3 |
| 20260505040513 | 72 | 212 | 1.7 | 5.2 | 0.00 | 0.00 | 0.00 | 68 | 1001.4 |
| 20260505035712 | 72 | 182 | 3.5 | 6.1 | 0.00 | 0.00 | 0.00 | 67 | 1000.9 |
| 20260505034912 | 72 | 179 | 4.3 | 7.8 | 0.00 | 0.00 | 0.00 | 67 | 1000.7 |
| 20260505034112 | 72 | 181 | 5.2 | 7.8 | 0.00 | 0.00 | 0.00 | 66 | 1000.9 |
| 20260505033312 | 72 | 187 | 4.3 | 6.1 | 0.00 | 0.00 | 0.00 | 65 | 1000.8 |
| 20260505032512 | 73 | 189 | 4.3 | 7.0 | 0.00 | 0.00 | 0.00 | 64 | 1000.8 |
| 20260505031711 | 73 | 189 | 4.3 | 8.7 | 0.00 | 0.00 | 0.00 | 63 | 1000.6 |
| 20260505030912 | 73 | 190 | 3.5 | 5.2 | 0.00 | 0.00 | 0.00 | 61 | 1000.5 |
| 20260505030111 | 74 | 191 | 3.5 | 5.2 | 0.00 | 0.00 | 0.00 | 60 | 1000.5 |
| 20260505025312 | 74 | 194 | 3.5 | 5.2 | 0.00 | 0.00 | 0.00 | 59 | 1000.4 |
| 20260505024512 | 74 | 195 | 2.6 | 4.3 | 0.00 | 0.00 | 0.00 | 57 | 1000.4 |
| 20260505023711 | 75 | 195 | 2.6 | 4.3 | 0.00 | 0.00 | 0.00 | 56 | 1000.2 |
| 20260505022913 | 75 | 195 | 2.6 | 3.5 | 0.00 | 0.00 | 0.00 | 56 | 1000.1 |
| 20260505022112 | 75 | 195 | 2.6 | 4.3 | 0.00 | 0.00 | 0.00 | 55 | 1000.0 |
| 20260505021312 | 75 | 195 | 2.6 | 5.2 | 0.00 | 0.00 | 0.00 | 54 | 999.9 |
| 20260505020511 | 75 | 198 | 2.6 | 6.1 | 0.00 | 0.00 | 0.00 | 53 | 999.8 |
| 20260505015711 | 75 | 201 | 1.7 | 3.5 | 0.00 | 0.00 | 0.00 | 53 | 999.7 |
| 20260505014911 | 75 | 202 | 0.9 | 4.3 | 0.00 | 0.00 | 0.00 | 53 | 999.6 |
| 20260505014112 | 76 | 0 | 0.0 | 0.0 | 0.00 | 0.00 | 0.00 | 52 | 999.5 |
| 20260505013312 | 76 | 0 | 0.0 | 0.0 | 0.00 | 0.00 | 0.00 | 51 | 999.4 |
| 20260505012511 | 76 | 0 | 0.0 | 0.0 | 0.00 | 0.00 | 0.00 | 51 | 999.3 |
| 20260505011712 | 77 | 0 | 0.0 | 0.0 | 0.00 | 0.00 | 0.00 | 50 | 999.2 |
| 20260505010912 | 77 | 0 | 0.0 | 0.0 | 0.00 | 0.00 | 0.00 | 49 | 999.1 |
| 20260505010111 | 78 | 0 | 0.0 | 0.0 | 0.00 | 0.00 | 0.00 | 49 | 999.0 |
| 20260505005311 | 78 | 0 | 0.0 | 0.0 | 0.00 | 0.00 | 0.00 | 48 | 999.0 |
| 20260505004512 | 78 | 0 | 0.0 | 0.0 | 0.00 | 0.00 | 0.00 | 48 | 998.8 |
| 20260505003712 | 79 | 0 | 0.0 | 0.0 | 0.00 | 0.00 | 0.00 | 47 | 998.9 |
| 20260505002911 | 79 | 0 | 0.0 | 0.0 | 0.00 | 0.00 | 0.00 | 47 | 998.8 |
| 20260505002113 | 79 | 0 | 0.0 | 0.0 | 0.00 | 0.00 | 0.00 | 46 | 998.8 |
| 20260505001312 | 79 | 0 | 0.0 | 0.0 | 0.00 | 0.00 | 0.00 | 47 | 998.8 |
| 20260505000512 | 79 | 201 | 0.0 | 0.9 | 0.00 | 0.00 | 0.00 | 47 | 998.9 |
| 20260504235711 | 79 | 201 | 0.0 | 0.9 | 0.00 | 0.00 | 0.00 | 47 | 998.9 |
| 20260504234913 | 80 | 201 | 0.0 | 1.7 | 0.00 | 0.00 | 0.00 | 47 | 998.8 |
| 20260504234112 | 80 | 201 | 0.9 | 3.5 | 0.00 | 0.00 | 0.00 | 47 | 998.8 |
| 20260504233311 | 80 | 201 | 1.7 | 5.2 | 0.00 | 0.00 | 0.00 | 46 | 998.8 |
| 20260504232511 | 80 | 205 | 2.6 | 5.2 | 0.00 | 0.00 | 0.00 | 44 | 998.8 |
| 20260504231712 | 80 | 203 | 1.7 | 5.2 | 0.00 | 0.00 | 0.00 | 43 | 998.9 |
| 20260504230911 | 81 | 218 | 1.7 | 5.2 | 0.00 | 0.00 | 0.00 | 42 | 998.9 |
| 20260504230112 | 81 | 202 | 2.6 | 9.6 | 0.00 | 0.00 | 0.00 | 43 | 998.9 |
| 20260504225311 | 81 | 236 | 0.9 | 5.2 | 0.00 | 0.00 | 0.00 | 43 | 998.9 |
| 20260504224511 | 81 | 219 | 0.9 | 3.5 | 0.00 | 0.00 | 0.00 | 42 | 998.9 |
| 20260504223712 | 80 | 196 | 1.7 | 8.7 | 0.00 | 0.00 | 0.00 | 44 | 998.9 |
| 20260504222912 | 80 | 190 | 0.9 | 4.3 | 0.00 | 0.00 | 0.00 | 44 | 998.9 |
| 20260504222111 | 80 | 187 | 1.7 | 3.5 | 0.00 | 0.00 | 0.00 | 47 | 999.0 |
| 20260504221312 | 80 | 207 | 2.6 | 6.1 | 0.00 | 0.00 | 0.00 | 45 | 999.2 |
| 20260504220512 | 80 | 202 | 3.5 | 9.6 | 0.00 | 0.00 | 0.00 | 46 | 999.1 |
| 20260504215711 | 80 | 193 | 5.2 | 15.6 | 0.00 | 0.00 | 0.00 | 46 | 999.1 |
| 20260504214912 | 80 | 193 | 6.1 | 15.6 | 0.00 | 0.00 | 0.00 | 46 | 999.2 |
| 20260504214111 | 80 | 191 | 6.1 | 13.9 | 0.00 | 0.00 | 0.00 | 47 | 999.3 |
| 20260504213311 | 80 | 194 | 6.1 | 12.2 | 0.00 | 0.00 | 0.00 | 47 | 999.3 |
| 20260504212511 | 80 | 196 | 7.0 | 13.0 | 0.00 | 0.00 | 0.00 | 48 | 999.4 |
| 20260504211711 | 80 | 195 | 7.0 | 17.4 | 0.00 | 0.00 | 0.00 | 46 | 999.3 |
| 20260504210912 | 81 | 193 | 7.0 | 13.9 | 0.00 | 0.00 | 0.00 | 45 | 999.4 |
| 20260504210112 | 82 | 192 | 7.0 | 13.0 | 0.00 | 0.00 | 0.00 | 45 | 999.3 |
| 20260504205311 | 82 | 198 | 5.2 | 13.0 | 0.00 | 0.00 | 0.00 | 43 | 999.4 |
| 20260504204512 | 82 | 197 | 3.5 | 12.2 | 0.00 | 0.00 | 0.00 | 42 | 999.4 |
| 20260504203712 | 82 | 197 | 5.2 | 13.0 | 0.00 | 0.00 | 0.00 | 42 | 999.5 |
| 20260504202911 | 82 | 188 | 8.7 | 15.6 | 0.00 | 0.00 | 0.00 | 40 | 999.6 |
| 20260504202112 | 82 | 189 | 7.0 | 17.4 | 0.00 | 0.00 | 0.00 | 40 | 999.6 |
| 20260504201311 | 82 | 187 | 7.0 | 15.6 | 0.00 | 0.00 | 0.00 | 40 | 999.7 |
| 20260504200513 | 82 | 193 | 4.3 | 13.0 | 0.00 | 0.00 | 0.00 | 40 | 999.7 |
| 20260504195712 | 82 | 198 | 4.3 | 10.4 | 0.00 | 0.00 | 0.00 | 42 | 999.6 |
| 20260504194911 | 81 | 207 | 3.5 | 9.6 | 0.00 | 0.00 | 0.00 | 43 | 999.7 |
| 20260504194111 | 81 | 193 | 6.1 | 11.3 | 0.00 | 0.00 | 0.00 | 43 | 999.7 |
| 20260504193312 | 80 | 194 | 5.2 | 11.3 | 0.00 | 0.00 | 0.00 | 42 | 999.8 |
| 20260504192511 | 80 | 209 | 4.3 | 10.4 | 0.00 | 0.00 | 0.00 | 44 | 999.9 |
| 20260504191711 | 80 | 196 | 3.5 | 10.4 | 0.00 | 0.00 | 0.00 | 43 | 999.9 |
| 20260504190911 | 80 | 200 | 4.3 | 9.6 | 0.00 | 0.00 | 0.00 | 48 | 999.8 |
| 20260504190112 | 79 | 195 | 6.1 | 16.5 | 0.00 | 0.00 | 0.00 | 46 | 1000.1 |
| 20260504185311 | 79 | 195 | 6.1 | 11.3 | 0.00 | 0.00 | 0.00 | 47 | 1000.1 |
| 20260504184512 | 79 | 197 | 3.5 | 8.7 | 0.00 | 0.00 | 0.00 | 46 | 1000.1 |
| 20260504183712 | 79 | 193 | 6.1 | 13.9 | 0.00 | 0.00 | 0.00 | 48 | 1000.1 |
| 20260504182911 | 79 | 208 | 4.3 | 13.9 | 0.00 | 0.00 | 0.00 | 46 | 1000.2 |
| 20260504182112 | 78 | 203 | 3.5 | 8.7 | 0.00 | 0.00 | 0.00 | 47 | 1000.3 |
| 20260504181311 | 78 | 201 | 4.3 | 11.3 | 0.00 | 0.00 | 0.00 | 49 | 1000.4 |
| 20260504180513 | 78 | 193 | 6.1 | 11.3 | 0.00 | 0.00 | 0.00 | 47 | 1000.4 |
| 20260504175712 | 78 | 192 | 4.3 | 10.4 | 0.00 | 0.00 | 0.00 | 50 | 1000.5 |
| 20260504174912 | 77 | 203 | 5.2 | 10.4 | 0.00 | 0.00 | 0.00 | 47 | 1000.6 |
| 20260504174112 | 77 | 198 | 4.3 | 13.0 | 0.00 | 0.00 | 0.00 | 48 | 1000.6 |
| 20260504173312 | 77 | 238 | 2.6 | 7.8 | 0.00 | 0.00 | 0.00 | 47 | 1000.6 |
| 20260504172511 | 77 | 218 | 2.6 | 9.6 | 0.00 | 0.00 | 0.00 | 49 | 1000.7 |
| 20260504171712 | 76 | 212 | 3.5 | 12.2 | 0.00 | 0.00 | 0.00 | 49 | 1000.7 |
| 20260504170911 | 76 | 213 | 2.6 | 8.7 | 0.00 | 0.00 | 0.00 | 48 | 1000.8 |
| 20260504170112 | 75 | 208 | 3.5 | 9.6 | 0.00 | 0.00 | 0.00 | 48 | 1000.7 |
| 20260504150912 | 71 | 207 | 6.1 | 14.8 | 0.00 | 0.00 | 0.00 | 52 | 1001.3 |
| 20260504150111 | 70 | 204 | 5.2 | 12.2 | 0.00 | 0.00 | 0.00 | 54 | 1001.2 |
| 20260504141312 | 67 | 188 | 3.5 | 10.4 | 0.00 | 0.00 | 0.00 | 59 | 1001.5 |
| 20260504140511 | 66 | 188 | 3.5 | 9.6 | 0.00 | 0.00 | 0.00 | 59 | 1001.5 |
| 20260504130112 | 64 | 184 | 3.5 | 8.7 | 0.00 | 0.00 | 0.00 | 60 | 1001.3 |
| 20260504110112 | 63 | 184 | 2.6 | 5.2 | 0.00 | 0.00 | 0.00 | 58 | 1001.6 |
| 20260504100511 | 65 | 183 | 0.9 | 4.3 | 0.00 | 0.00 | 0.00 | 55 | 1002.2 |
| 20260504090113 | 66 | 193 | 2.6 | 6.1 | 0.00 | 0.00 | 0.00 | 54 | 1002.5 |
| 20260504081312 | 65 | 182 | 3.5 | 7.8 | 0.00 | 0.00 | 0.00 | 55 | 1002.6 |
| 20260504080512 | 65 | 179 | 3.5 | 6.1 | 0.00 | 0.00 | 0.00 | 55 | 1002.8 |